Regional Weather Roundup
Issued by NWS Albany, NY

Home | Current Version | Previous Version | Graphics & Text | Print | Product List | Glossary Off
Versions: 1 2 3 4 5 6 7 8 9 10 11 12 13 14 15 16 17 18 19 20 21 22 23 24 25 26 27 28 29 30 31 32 33 34 35 36 37 38 39 40 41 42 43 44 45 46 47

000
ASUS41 KALY 270110
RWRALY

NEW YORK STATE HOURLY WEATHER ROUNDUP
NATIONAL WEATHER SERVICE ALBANY NY
800 PM EST FRI DEC 26 2014

NOTE: "FAIR" INDICATES FEW OR NO CLOUDS BELOW 12,000 FEET WITH NO
SIGNIFICANT WEATHER AND/OR NO OBSTRUCTIONS TO VISIBILITY.

NYZ032-033-038>043-046>054-057>066-NYZ062>081-270200-
EAST


CITY           SKY/WX    TMP DP  RH WIND       PRES   REMARKS
ALBANY         PTCLDY    32  27  81 CALM      30.19R
GLENS FALLS    CLEAR     32  26  78 CALM      30.17R
POUGHKEEPSIE   CLEAR     34  27  75 CALM      30.20R
MONTGOMERY     CLEAR     30  26  85 CALM      30.20R
WHITE PLAINS   CLEAR     42  28  57 W5        30.20R
ISLIP          PTCLDY    39  30  70 SW3       30.20R
NEW YORK CITY  CLEAR     46  29  51 W9        30.23R
CENTRAL PARK   CLEAR     46  29  51 VRB5      30.25R
$$

NYZ005>009-017-018-044>046-055-056-270200-
CENTRAL


CITY           SKY/WX    TMP DP  RH WIND       PRES   REMARKS
FULTON         CLEAR     31  27  85 CALM      30.15S
SYRACUSE       CLEAR     33  28  81 SE3       30.16S
ROME           CLEAR     28  26  92 CALM      30.19R
ELMIRA         CLEAR     27  25  92 NE3       30.17F
BINGHAMTON     CLEAR     36  27  69 SW8       30.15S WCI  30
MONTICELLO     CLEAR     34  27  75 W6        30.19R WCI  29
$$

NYZ026>034-041>043-270200-
NORTH


CITY           SKY/WX    TMP DP  RH WIND       PRES   REMARKS
WATERTOWN      PTCLDY    39  27  62 S5        30.13S
FORT DRUM      NOT AVBL
MASSENA        CLOUDY    39  33  79 SW6       30.12F WCI  35
SARANAC LAKE   CLOUDY    34  29  82 SW9       30.07F WCI  27
PLATTSBURGH    CLOUDY    38  29  70 S5        30.12F WCI  34
$$

NYZ001>004-010>016-019>021-270200-
WEST


CITY           SKY/WX    TMP DP  RH WIND       PRES   REMARKS
NIAGARA FALLS  PTCLDY    39  33  79 SW12      30.12F WCI  32
BUFFALO        CLEAR     42  34  73 SW9       30.13S
DUNKIRK        CLEAR     43  31  62 SW14G24   30.14F
JAMESTOWN      PTCLDY    37  28  70 S9        30.15S WCI  31
WELLSVILLE     CLEAR     38  28  67 SW6       30.14F WCI  33
ROCHESTER      CLEAR     40  28  62 CALM      30.14S
PENN YAN       CLEAR     38  27  64 SW6       30.15R WCI  33
$$

             KEY
       WCI = WIND CHILL INDEX
       VSB = VISIBILITY
       HX  = HEAT INDEX
$$



USA.gov is the U.S. government's official web portal to all federal, state and local government web resources and services.